[[{"header":{"parameterUnit":"m.s-1","parameterCategory":1,"la1":30.2991,"la2":30.254,"lo1":-89.0895,"lo2":-89.0444,"dx":0.0017,"dy":0.0017,"nx":28,"ny":28,"refTime":"2022-11-05T15:00:00:Z","depth":0,"parameterNumber":2,"parameterNumberName":"U-component_of_WINDS"},"data":[0,0,0,0,0,0,0,0,0,0,0,0,0,0,0,0,0,0,0,0,0,0,0,0,0,0,0,0,0,0,0,0,0,0,0,0,0,0,0,0,0,0,0,0,0,0,0,0,0,0,0,0,0,0,0,0,0,0,1.106,1.1059,0,1.0935,1.0934,1.0932,1.0862,1.0861,1.0861,1.0861,1.0723,1.072,1.0716,0,0,0,0,0,0,0,0,0,0,0,0,0,1.1229,1.1226,1.1061,1.1059,1.1057,1.0935,1.0934,1.0932,1.0862,1.0861,1.0861,1.0861,1.0724,1.072,1.0716,0,0,0,0,0,0,0,0,0,0,0,0,0,1.1135,1.1226,1.1061,1.1008,1.1002,1.0936,1.0934,1.0931,1.0862,1.0861,1.0861,1.0861,1.0726,1.072,1.0715,1.0689,0,0,1.0699,1.0697,0,0,0,0,0,0,0,0,1.114,1.1129,1.1017,1.1011,1.1005,1.0914,1.0942,1.085,1.0862,1.0915,1.0861,1.0861,1.0786,1.0776,1.0753,1.0683,1.0677,1.0699,1.0696,1.0693,1.0692,0,0,0,0,0,0,0,1.1147,1.1134,1.1011,1.1016,1.1008,1.0987,1.0973,1.0925,1.0853,1.091,1.0905,1.0891,1.0783,1.0758,1.0749,1.0675,1.0699,1.0694,1.0691,1.0689,1.0574,1.0575,0,0,0,0,0,0,1.1163,1.114,1.1015,1.1007,1.1073,1.0984,1.0969,1.0943,1.0854,1.084,1.0892,1.0889,1.0767,1.0755,1.0744,1.0706,1.0693,1.0689,1.0686,1.0574,1.0574,1.0575,0,0,0,0,0,0,1.1167,1.1153,1.102,1.1072,1.1053,1.0982,1.0953,1.0941,1.0916,1.084,1.0826,1.088,1.0766,1.0751,1.0704,1.0701,1.0686,1.0681,1.0574,1.0574,1.0575,1.0632,0,0,0,0,0,0,1.1172,1.1155,1.1147,1.1072,1.1051,1.0985,1.0953,1.0939,1.0909,1.0903,1.0826,1.0812,1.0765,1.0712,1.0698,1.0693,1.0677,1.0574,1.0574,1.0575,1.063,1.0634,1.0638,0,0,0,0,0,1.1179,1.1166,1.1146,1.1132,1.104,1.0985,1.0972,1.0921,1.0909,1.0898,1.0849,1.0815,1.0703,1.0708,1.0692,1.0685,1.0574,1.0574,1.0574,1.0629,1.0634,1.0638,0,0,0,0,0,0,1.1238,1.1155,1.1133,1.1096,1.1049,1.0973,1.0958,1.0928,1.088,1.0876,1.0811,1.0794,1.0753,1.0713,1.072,1.0654,1.0635,1.0632,1.0681,1.0685,1.0689,1.0699,1.0673,0,0,0,0,0,1.1248,1.1214,1.1141,1.1116,1.1093,1.103,1.1004,1.0969,1.0916,1.0894,1.0841,1.0788,1.0741,1.0711,1.0663,1.0624,1.0605,1.0611,1.0615,1.0619,1.0617,1.0592,1.0593,1.0575,1.0575,1.0575,0,0,1.1266,1.1216,1.1198,1.1127,1.1085,1.1048,1.1014,1.0976,1.0947,1.0887,1.084,1.0799,1.0735,1.0692,1.067,1.0658,1.0618,1.0619,1.0623,1.0618,1.0592,1.0594,1.0595,1.0575,1.0575,1.0575,0,0,1.128,1.124,1.1214,1.1174,1.1113,1.1071,1.1065,1.0994,1.0966,1.0918,1.0873,1.0835,1.0756,1.0712,1.0679,1.0676,1.0642,1.0662,1.0681,1.0658,1.0659,1.066,1.0658,1.0658,1.066,1.066,1.066,0,1.1309,1.1255,1.1204,1.1169,1.1138,1.1086,1.1057,1.102,1.0945,1.0923,1.0912,1.0811,1.0764,1.0709,1.0709,1.0684,1.0672,1.067,1.0664,1.0664,1.0664,1.0661,1.066,1.0663,1.0663,1.0662,1.0662,0,1.1293,1.1256,1.1242,1.1175,1.1142,1.111,1.1052,1.1024,1.0991,1.0949,1.09,1.0842,1.0781,1.0765,1.0732,1.0705,1.0699,1.0677,1.0656,1.0669,1.0665,1.0664,1.0667,1.0666,1.0665,1.0664,0,0,1.1341,1.1247,1.1243,1.1212,1.114,1.1109,1.1073,1.1018,1.0994,1.0944,1.0911,1.0845,1.0824,1.0787,1.0747,1.0727,1.0727,1.0706,1.0703,1.0711,1.0691,1.0709,1.0709,1.0704,1.0703,1.0703,1.0696,0,1.1345,1.1283,1.1236,1.1191,1.1154,1.1104,1.1072,1.1024,1.0984,1.0944,1.0898,1.0852,1.0828,1.0805,1.0782,1.0732,1.0722,1.0731,1.067,1.0668,1.0688,1.0707,1.0725,1.0721,1.0695,1.0694,1.0694,0,1.134,1.1296,1.1248,1.1181,1.1164,1.1137,1.1081,1.1045,1.0988,1.0959,1.0919,1.0878,1.0835,1.0819,1.0758,1.0766,1.0737,1.0708,1.0706,1.0698,1.0682,1.0698,1.0719,1.0719,1.0691,1.0692,1.0692,0,1.138,1.1307,1.1269,1.1244,1.1164,1.1146,1.1112,1.1054,1.1023,1.0973,1.0952,1.0896,1.0865,1.0822,1.0766,1.076,1.071,1.0689,1.0683,1.0684,1.0674,1.0675,1.069,1.0657,1.0657,1.0657,1.0657,0,1.1388,1.136,1.1286,1.1262,1.1229,1.1173,1.1141,1.1101,1.105,1.1016,1.0967,1.0935,1.0864,1.0822,1.0778,1.0733,1.0719,1.0693,1.0681,1.0697,1.07,1.0677,1.0675,1.0657,1.0657,1.0657,1.0657,0,1.1426,1.1375,1.133,1.1259,1.1241,1.1219,1.1156,1.113,1.1087,1.1044,1.103,1.0962,1.091,1.0851,1.0779,1.0749,1.0706,1.069,1.0727,1.072,1.0717,1.0718,1.0717,1.0713,1.0684,1.0685,1.0685,0,1.1434,1.1413,1.134,1.1315,1.1283,1.1243,1.1212,1.1155,1.1124,1.1057,1.1038,1.0983,1.0937,1.0855,1.0797,1.0741,1.0722,1.0726,1.0713,1.0729,1.0721,1.0723,1.0719,1.0729,1.073,1.073,1.073,0,1.1455,1.1431,1.139,1.134,1.1305,1.1262,1.1216,1.1198,1.1131,1.1098,1.1046,1.101,1.0938,1.0883,1.082,1.078,1.0743,1.0735,1.073,1.0746,1.0768,1.0755,1.0736,1.0735,1.0735,1.0734,1.0734,1.0734,1.1477,1.1455,1.1401,1.1357,1.1317,1.1276,1.1248,1.1203,1.116,1.1099,1.1067,1.1015,1.0955,1.0868,1.0829,1.0785,1.0773,1.0766,1.0764,1.0763,1.0768,1.0776,1.0773,1.0773,1.0773,1.0773,1.0772,0,1.1494,1.1457,1.1417,1.1357,1.1321,1.1293,1.1241,1.1212,1.1169,1.1118,1.1074,1.1014,1.096,1.0898,1.084,1.0817,1.0798,1.0803,1.0804,1.0795,1.0782,1.0792,1.0819,1.0819,1.0819,1.0819,1.0819,1.0819,1.1499,1.146,1.143,1.137,1.1331,1.1284,1.1256,1.1217,1.1176,1.1112,1.1069,1.103,1.0974,1.0911,1.086,1.0843,1.0823,1.0833,1.081,1.08,1.0796,1.0792,1.0801,1.0829,1.0829,1.0826,1.0826,1.0826]},{"header":{"parameterUnit":"m.s-1","parameterCategory":1,"la1":30.2991,"la2":30.254,"lo1":-89.0895,"lo2":-89.0444,"dx":0.0017,"dy":0.0017,"nx":28,"ny":28,"refTime":"2022-11-05T15:00:00:Z","depth":0,"parameterNumber":3,"parameterNumberName":"V-component_of_WINDS"},"data":[0,0,0,0,0,0,0,0,0,0,0,0,0,0,0,0,0,0,0,0,0,0,0,0,0,0,0,0,0,0,0,0,0,0,0,0,0,0,0,0,0,0,0,0,0,0,0,0,0,0,0,0,0,0,0,0,0,0,3.8108,3.8111,0,3.8377,3.838,3.8383,3.853,3.853,3.8531,3.8531,3.8806,3.8813,3.882,0,0,0,0,0,0,0,0,0,0,0,0,0,3.7719,3.7725,3.8107,3.8111,3.8114,3.8377,3.838,3.8384,3.853,3.853,3.8531,3.8531,3.8804,3.8812,3.882,0,0,0,0,0,0,0,0,0,0,0,0,0,3.7928,3.7727,3.8107,3.8219,3.8231,3.8376,3.8381,3.8385,3.853,3.853,3.8531,3.8531,3.8801,3.8811,3.8822,3.8875,0,0,3.8854,3.8858,0,0,0,0,0,0,0,0,3.7916,3.7942,3.8199,3.8211,3.8226,3.8421,3.8344,3.8549,3.853,3.8416,3.8531,3.8532,3.8677,3.8698,3.8747,3.8888,3.89,3.8854,3.8861,3.8865,3.8868,0,0,0,0,0,0,0,3.7901,3.7931,3.8214,3.8202,3.8219,3.8255,3.8286,3.8384,3.854,3.8426,3.8438,3.8468,3.8685,3.8737,3.8755,3.8904,3.8854,3.8863,3.887,3.8874,3.9105,3.9105,0,0,0,0,0,0,3.7869,3.7918,3.8206,3.8222,3.8069,3.8262,3.8296,3.8357,3.854,3.8568,3.8467,3.8474,3.8719,3.8742,3.8765,3.8842,3.8865,3.8875,3.8881,3.9105,3.9105,3.9105,0,0,0,0,0,0,3.786,3.7893,3.8195,3.8073,3.8115,3.8268,3.8336,3.8362,3.8415,3.8571,3.8599,3.8491,3.872,3.875,3.8847,3.8853,3.888,3.8889,3.9105,3.9105,3.9105,3.8994,0,0,0,0,0,0,3.7848,3.7889,3.7911,3.8073,3.812,3.8272,3.8336,3.8367,3.8433,3.8444,3.8601,3.8628,3.8723,3.8831,3.8858,3.8868,3.8897,3.9105,3.9105,3.9105,3.8998,3.899,3.8983,0,0,0,0,0,3.7833,3.7868,3.7911,3.7945,3.8151,3.8272,3.83,3.8409,3.8432,3.8456,3.8556,3.8623,3.8848,3.884,3.8871,3.8885,3.9105,3.9105,3.9105,3.9001,3.8992,3.8984,0,0,0,0,0,0,3.7702,3.7891,3.7941,3.8029,3.8134,3.8297,3.833,3.8395,3.8494,3.85,3.8631,3.8666,3.8751,3.8828,3.8815,3.8948,3.8984,3.899,3.8894,3.8887,3.8879,3.886,3.8906,0,0,0,0,0,3.7683,3.7766,3.7927,3.7989,3.8039,3.8175,3.8232,3.8307,3.842,3.8465,3.8572,3.8679,3.8775,3.8835,3.8931,3.9009,3.9047,3.9035,3.9027,3.902,3.9024,3.9074,3.9071,3.9104,3.9104,3.9104,0,0,3.7646,3.7759,3.7803,3.7966,3.8056,3.8139,3.8211,3.8295,3.8359,3.8478,3.8577,3.8659,3.8787,3.8875,3.892,3.8942,3.9024,3.902,3.9013,3.9022,3.9073,3.907,3.9067,3.9103,3.9103,3.9103,0,0,3.762,3.7713,3.7777,3.7865,3.8001,3.8091,3.8105,3.826,3.8319,3.842,3.8512,3.8589,3.8749,3.8838,3.8904,3.8912,3.8977,3.8939,3.8902,3.8948,3.8946,3.8944,3.8949,3.8949,3.8943,3.8942,3.8942,0,3.7556,3.7685,3.78,3.7881,3.795,3.8062,3.8127,3.8207,3.8366,3.8412,3.8434,3.864,3.8734,3.8846,3.8848,3.8897,3.8919,3.8923,3.8937,3.8936,3.8937,3.8943,3.8944,3.8937,3.8938,3.8938,3.8939,0,3.76,3.7688,3.7723,3.7875,3.7948,3.8019,3.8146,3.8206,3.8275,3.8363,3.8465,3.8582,3.8705,3.8737,3.8804,3.8858,3.8868,3.8912,3.8951,3.8926,3.8934,3.8937,3.8929,3.8931,3.8933,3.8934,0,0,3.7499,3.7715,3.7726,3.7797,3.7955,3.8025,3.8102,3.8223,3.8272,3.8378,3.8447,3.8581,3.8623,3.8698,3.8776,3.8817,3.8818,3.8857,3.8862,3.8847,3.8887,3.8854,3.8855,3.8862,3.8863,3.8863,3.8877,0,3.7497,3.7642,3.7748,3.7852,3.7936,3.8044,3.8111,3.8215,3.8299,3.8383,3.8476,3.8569,3.8617,3.8663,3.8708,3.8808,3.8828,3.8808,3.8928,3.8931,3.8894,3.8859,3.8824,3.8831,3.8881,3.8881,3.8882,0,3.7514,3.7617,3.7729,3.788,3.7919,3.7977,3.8098,3.8175,3.8296,3.8354,3.8438,3.8519,3.8606,3.8636,3.8759,3.8743,3.8798,3.8855,3.8858,3.8875,3.8905,3.8876,3.8836,3.8837,3.8887,3.8887,3.8886,0,3.7431,3.7598,3.7687,3.7744,3.7922,3.7961,3.8036,3.8157,3.8224,3.8328,3.8373,3.8485,3.8547,3.8633,3.8743,3.8754,3.8855,3.8894,3.8907,3.8904,3.8924,3.8921,3.8894,3.8956,3.8956,3.8956,3.8956,0,3.7418,3.7483,3.7653,3.7708,3.7784,3.7906,3.7978,3.8062,3.8169,3.8243,3.8343,3.841,3.855,3.8634,3.8721,3.881,3.8837,3.8887,3.891,3.8879,3.8873,3.8918,3.8921,3.8957,3.8956,3.8956,3.8956,0,3.7339,3.7455,3.756,3.7719,3.7761,3.781,3.7947,3.8004,3.8094,3.8186,3.8215,3.8356,3.846,3.8578,3.8721,3.878,3.8863,3.8895,3.8823,3.8836,3.8843,3.8841,3.8845,3.8853,3.8907,3.8906,3.8905,0,3.7324,3.7376,3.7542,3.7598,3.7672,3.7761,3.783,3.7952,3.8019,3.8161,3.8202,3.8314,3.841,3.8572,3.8688,3.8798,3.8835,3.8828,3.8852,3.882,3.8837,3.8833,3.884,3.8822,3.882,3.8819,3.8819,0,3.7285,3.734,3.7435,3.755,3.7629,3.7726,3.7826,3.7867,3.8009,3.808,3.8188,3.8263,3.841,3.852,3.8645,3.8724,3.8796,3.881,3.882,3.879,3.8746,3.8772,3.8806,3.881,3.8811,3.8811,3.8812,3.8812,3.7239,3.7292,3.7416,3.7519,3.7608,3.77,3.7762,3.786,3.7953,3.8082,3.8149,3.8256,3.8377,3.8553,3.8629,3.8716,3.8739,3.8752,3.8756,3.8757,3.875,3.8731,3.8739,3.8739,3.874,3.874,3.874,0,3.7207,3.7293,3.7386,3.7524,3.7605,3.7665,3.778,3.7844,3.7937,3.8044,3.8137,3.8262,3.8371,3.8494,3.8611,3.8656,3.8692,3.8683,3.8682,3.8699,3.8721,3.8703,3.8652,3.8652,3.8652,3.8652,3.8652,3.8652,3.72,3.7293,3.7362,3.75,3.7586,3.7693,3.7753,3.7839,3.7925,3.8061,3.8151,3.8231,3.8346,3.8471,3.8574,3.8607,3.8646,3.8628,3.8671,3.869,3.8697,3.8704,3.8687,3.8635,3.8634,3.8642,3.8642,3.8642]}]]